Regional Weather Roundup
Issued by NWS

Home | Current Version | Previous Version | Text Only | Print | Product List | Glossary On
Versions: 1 2 3 4 5 6 7 8 9 10 11 12 13 14 15 16 17 18 19 20 21 22 23 24 25 26 27 28 29 30 31 32 33 34 35 36 37 38 39 40 41 42 43 44 45 46 47 48 49 50
000
ASHW40 PHFO 300743
RWRHI

WEATHER ROUNDUP FOR HAWAII
NATIONAL WEATHER SERVICE HONOLULU HI
900 PM HST SUN MAR 29 2015

THIS IS AN AUTOMATED REPORT THAT HAS NOT BEEN QUALITY CONTROLLED.

NOTE..."FAIR" INDICATES FEW OR NO CLOUDS BELOW 12,000 FEET WITH NO
SIGNIFICANT WEATHER AND/OR OBSTRUCTIONS TO VISIBILITY.

* - THESE SITES REPORT LIMITED FIELDS

HIZ001>004-300800-
KAUAI-NIIHAU-

CITY           SKY/WX    TMP DP  RH WIND       PRES   REMARKS
LIHUE APT      CLOUDY    75  66  73 E17       30.19R
PORT ALLEN*      N/A     73 N/A N/A E8          N/A
POIPU*           N/A     73 N/A N/A NE8G15      N/A
PRINCEVILLE*     N/A     70 N/A N/A MISG        N/A
KOKOLE POINT*  NOT AVBL
MOLOAA DAIRY*  NOT AVBL
WAIMEA HTS*      N/A     72  57  60 E6          N/A
PUU OPAE*        N/A     64  57  77 CALM        N/A
PUU LUA*       NOT AVBL
MAKAHA RIDGE*  NOT AVBL
$$

HIZ005>011-300800-
OAHU-

CITY           SKY/WX    TMP DP  RH WIND       PRES   REMARKS
HONOLULU       PTCLDY    72  65  78 NE10      30.16R
KALAELOA       PTCLDY    73  64  73 E3        30.17R
KANEOHE MCB    MOCLDY    75  67  76 E10       30.16R
WHEELER FIELD  FAIR      71  64  78 E3        30.18R
BELLOWS*         N/A    N/A N/A N/A NE18        N/A
KAHUKU*          N/A    N/A N/A N/A NE8G16      N/A
WHEELER*       NOT AVBL
WAIANAE HARBOR NOT AVBL
DILLINGHAM*      N/A     68  64  88 MISG        N/A
KAHUKU TRN*      N/A     70  64  83 E8G17       N/A
KAWAILOA*        N/A     70  63  78 E12G18      N/A
KII*             N/A     75  68  78 E17         N/A
MAKUA RANGE*     N/A     72  64  78 NE3         N/A
OAHU FOREST NW   N/A    N/A N/A N/A CALM        N/A
SCHOFIELD BRK*   N/A     66  63  88 CALM        N/A
SCHOFIELD S*   NOT AVBL
WAIANAE VLY*     N/A     72  63  73 VRB7G21     N/A
KUAOKALA*        N/A     70  63  78 CALM        N/A
HONOULIUULI*   NOT AVBL
MOKUOLOE IS*     N/A    N/A N/A N/A MISG        N/A
PALEHUA*         N/A     75  64  69 CALM        N/A
WAIAWA PHB*    NOT AVBL
$$

HIZ012>013-300800-
MOLOKAI-

CITY           SKY/WX    TMP DP  RH WIND       PRES   REMARKS
MOLOKAI AIRPT  CLOUDY    73  60  63 NE12G21   30.18R
KALAUPAPA      NOT AVBL
MAKAPULAPAI*     N/A     73  63  68 E17G26      N/A
MOLOKAI 1*       N/A    N/A N/A N/A W3G18       N/A
PUU ALII*        N/A     57  57 100 CALM        N/A
$$

HIZ016-300800-
KAHOOLAWE-

CITY           SKY/WX    TMP DP  RH WIND       PRES   REMARKS
KAHOOLAWE*       N/A     66 N/A N/A NE10G16     N/A
HAKIOAWA*        N/A     68  65  91 MISG      30.59R
HONOKANAIA*      N/A     74  63  69 N9G23     30.17R
KANELOA*         N/A     72  64  78 MISG      29.36R
KEALIALALO*      N/A     70  64  83 E6G24     30.18R
LUA MAKIKA*    NOT AVBL
$$

HIZ014>015-300800-
LANAI-

CITY           SKY/WX    TMP DP  RH WIND       PRES   REMARKS
LANAI CITY       N/A    N/A N/A N/A MISG        N/A
LANAI 1*         N/A     68  68 100 NE18G31     N/A
$$

HIZ017>028-300800-
MAUI-

CITY           SKY/WX    TMP DP  RH WIND       PRES   REMARKS
KAHULUI        PTCLDY    72  68  87 NE12      30.18R
KAPALUA-W MAUI NOT AVBL
HANA AIRPORT   MOCLDY    70  68  94 SE8       30.23S FOG
HANA*            N/A     73 N/A N/A E12G25      N/A
HALEAKALA SUMM   N/A     41  36  81 NE13G24     N/A
MAALAEA BAY*   NOT AVBL
HALEAKALA*     NOT AVBL
KAUPO GAP*       N/A     64  57  77 NE9G21      N/A
KULA 1*          N/A     48  46  93 E5          N/A
$$

HIZ023>026-300800-
BIG ISLAND OF HAWAII COAST AND LOWER SLOPES-

CITY           SKY/WX    TMP DP  RH WIND       PRES   REMARKS
KAILUA KONA    PTCLDY    76  64  66 NE13      30.11R
HILO           CLOUDY    72  65  78 CALM      30.18R
HONOKAA*       NOT AVBL
KAWAIHAE MWT*    N/A     79 N/A N/A W3          N/A
KAWAIHAE*        N/A     79 N/A N/A N3          N/A
SOUTH POINT*     N/A     72 N/A N/A NE15G21     N/A
UPOLU AIRPORT*   N/A    N/A N/A N/A NE24G31     N/A
KAMUELA*       PTSUNNY   63  63 100 NE20      30.24R
HAKALAU*         N/A     46  46 100 SW2G8       N/A
KALOKO-HONOKO*   N/A     73  66  78 NE6       30.11R
PALI 2*          N/A     63  57  82 N18G26      N/A
KEALAKOMO*       N/A     75  61  60 VRB17G24    N/A
KAUPULEHU*       N/A     70  57  64 SW8         N/A
KAPAPALA*        N/A     61  59  93 CALM        N/A
LOWER KAHUKU*    N/A     61  59  94 VRB2G12     N/A
PUHE CS*         N/A     77  64  65 W3G12       N/A
PUHO CS*         N/A     73  68  83 NE1         N/A
PTA KEAMUKU*     N/A     55  52  88 CALM        N/A
WAIKOLOA*        N/A     70  57  64 E15G26      N/A
$$

HIZ027>028-300800-
BIG ISLAND OF HAWAII INTERIOR AND SUMMMITS-

CITY           SKY/WX    TMP DP  RH WIND       PRES   REMARKS
BRADSHAW FIELD PTCLDY    50  45  81 SE3       30.44R
MK VISITOR CEN NOT AVBL
MAUNA KEA*       N/A     36 -11  13 E10         N/A  WCI  28
MAUNA LOA*       N/A     46   3  17 MISG        N/A
MAUNA LOA 1*   NOT AVBL
PTA KIPUKA*      N/A     55  50  82 N5G15       N/A
PTA RANGE 17*    N/A     55  48  76 SE6G12      N/A
PTA WEST*        N/A     57  55  94 S6          N/A
NENE CABIN*      N/A     46  43  87 NE7         N/A
AHUMOA*          N/A     50  50  99 E5          N/A
PTA PORTABLE*  NOT AVBL
PUU MALI*      NOT AVBL
$$

HIC003-300800-
NORTHWEST ISLANDS-

CITY           SKY/WX    TMP DP  RH WIND       PRES   REMARKS
MIDWAY ISLAND  CLOUDY    63  48  59 E9        30.37S
MIDWAY NOS*    NOT AVBL
FRENCH FRIGATE NOT AVBL
$$

PHZ110>124-180-300800-
BUOY REPORTS

STATION/POSITION TIME  TEMP    WIND        PRES    WAVE   SWELL
                       AIR SEA DIR/SP/G            HT/PER HT/DIR
                 (UTC) (F)     (DEG/KT/KT) (MB)    (FT/S) (FT/D)
BUOY 51001       NOT AVBL
BUOY 51101       0700   70 71   60/ 21/ 27 1023.6R   9/14   7/320
BUOY 51100       0600   73 74   70/ 14/ 16 1022.8
BUOY 51003       0700   77 78   60/ 10/ 12 1020.3R   8/15   8
BUOY 51004       0557   77 77   60/ 17/ 19 1019.4    8/10   7/ 80
BARBERS PT BUOY  NOT AVBL
WAIMEA BAY BUOY  0700      76                N/A     6/15   5/320
KAILUA BAY BUOY  0700      76                N/A     7/ 8   2/ 20
LANAI BUOY       0700      77                N/A     3/15   2/230
BARBERS PT 2     0700      76                N/A     5/13   5/160
PAUWELA MAUI     0700      76                N/A     8/15   3/310
HILO             0700      77                N/A     8/ 9   3/ 90
KANEOHE BAY BUOY 0700      76                N/A     5/ 8   2/350
HANALEI KAUAI    0700      76                N/A     8/14   5/310
KAHULUI HARBOR   0700   73 77   60/  6/ 13 1021.8R
HONOLULU HARBOR  0700   74 77  140/  1/  5 1021.5R
KILO NALU        NOT AVBL
HILO HARBOR      0700   73 77  200/  3/  5 1021.8R
MOKUOLOE         0700   75      70/ 12/ 15   N/A
NAWILIWILI       0700   75      60/ 13/ 16 1022.1R
WHOTS BUOY       NOT AVBL
BUOY 51028       NOT AVBL
$$

......................KEY........................................
  SKY/WX - SKY CONDITIONS/PRESENT WEATHER
  TMP    - TEMPERATURE IN FAHRENHEIT
  DWPT   - DEWPOINT IN FAHRENHEIT
  RH     - RELATIVE HUMIDITY IN PERCENT
  WIND   - DIRECTION AND SPEED /MPH FOR ISLANDS...KTS FOR BUOYS/
  PRES   - MEAN SEA LEVEL PRESSURE IN INCHES OF HG
  VSB    - VISIBILITY IN MILES
  HX     - HEAT INDEX
  WCI    - WIND CHILL INDEX
  VRB    - VARIABLE WIND DIRECTION
  N/A    - NOT AVAILABLE



USA.gov is the U.S. government's official web portal to all federal, state and local government web resources and services.